#timestamp,LO_Frequency,Hit,StdDev 
1516316415.2,286047000.6,N
1516316435.0,286047000.5,N
1516316435.9,286047000.5,N
1516316455.7,286046998.5,N
1516316475.6,286046998.3,N
1516316495.4,286046999.0,N
1516316515.3,286046998.1,N
1516316535.1,286046999.8,N
1516316536.0,286046999.8,N
1516316555.8,286047000.4,N
1516316575.7,286047004.2,Y
1516316595.5,286047004.3,P
1516316615.4,286047002.0,N
1516316635.2,286047001.4,N
1516316655.0,286047001.7,N
1516316655.9,286047001.7,N
1516316675.8,286047002.4,N
1516316695.6,286047002.8,N
1516316715.4,286047001.6,N
1516316735.3,286047002.4,N
1516316755.1,286047000.0,N
1516316775.9,286047001.2,N
1516316795.7,286047000.7,N
1516316815.5,286047000.8,N
1516316835.4,286047000.4,N
1516316855.2,286046998.5,N
1516316875.0,286047001.0,N
1516316875.9,286047001.0,N
1516316895.8,286047000.7,N
1516316915.6,286047000.0,N
1516316935.5,286047000.7,N
1516316955.3,286047000.6,N
1516316975.1,286047002.0,N
1516316995.9,286047001.3,N
1516317015.7,286047002.2,N
1516317035.5,286047004.3,Y
1516317055.4,286047002.6,P
1516317075.2,286046999.9,N
1516317095.1,286047001.0,N
1516317096.0,286047001.0,N
1516317115.8,286047000.0,N
1516317135.6,286047002.7,N
1516317155.5,286047000.3,N
1516317175.3,286047000.8,N
1516317195.2,286047000.7,N
1516317215.9,286046999.0,N
1516317235.7,286046996.6,Y
1516317255.6,286046997.6,P
1516317275.4,286046996.6,N
1516317295.3,286046998.9,N
1516317315.1,286046999.1,N
1516317316.0,286046999.1,N
1516317335.8,286046999.3,N
1516317355.7,286046999.5,N
1516317375.5,286046999.5,N
1516317395.3,286046997.8,N
1516317415.2,286046999.6,N
1516317435.0,286046994.9,Y
1516317435.9,286046994.9,P
1516317455.8,286046999.1,N
1516317475.6,286046999.0,N
1516317495.4,286046998.2,N
1516317515.3,286047000.2,N
1516317535.1,286047002.2,N
1516317555.9,286047002.4,N
1516317575.7,286047004.3,N
1516317595.5,286046999.8,N
1516317615.4,286047000.4,N
1516317635.2,286046998.1,N
1516317655.0,286046998.2,N
1516317655.9,286046998.2,N
1516317675.8,286047000.4,N
1516317695.6,286047000.2,N
1516317715.5,286046998.1,N
1516317735.3,286047001.1,N
1516317755.1,286047000.6,N
1516317775.9,286047000.8,N
1516317795.7,286047000.3,N
1516317815.5,286047000.8,N
1516317835.4,286047000.6,N
1516317855.2,286047000.8,N
1516317875.1,286046999.7,N
1516317876.0,286046999.7,N
1516317895.8,286047001.6,N
1516317915.6,286047001.8,N
1516317935.5,286047003.5,N
1516317955.3,286047004.4,N
1516317975.1,286047004.1,N
1516317995.9,286047003.9,N
1516318015.7,286047001.3,N
1516318035.6,286047001.9,N
1516318055.4,286047002.1,N
1516318075.2,286047001.9,N
1516318095.1,286047003.8,N
1516318096.0,286047003.8,N
1516318115.8,286047003.1,N
1516318135.7,286047003.1,N
1516318155.5,286047002.0,N
1516318175.3,286047001.3,N
1516318195.2,286047005.0,N
1516318215.9,286047003.6,N
1516318235.7,286047005.6,Y
1516318255.6,286047004.0,P
1516318275.4,286047002.8,N
1516318295.3,286047002.3,N
1516318315.1,286047002.7,Y
1516318316.0,286047002.7,P
1516318335.8,286046995.5,P
1516318355.7,286046995.3,N
1516318375.5,286046997.7,N
1516318395.3,286046995.1,N
1516318415.2,286046997.5,N
1516318435.0,286046995.4,N
1516318435.9,286046995.4,N
1516318455.8,286046995.4,N
1516318475.6,286046997.5,N
1516318495.4,286046995.5,N
1516318515.3,286046995.1,N
1516318535.1,286046995.2,N
1516318555.8,286046996.2,N
1516318575.7,286046995.2,N
1516318595.5,286046996.1,N
1516318615.4,286046996.0,N
1516318635.2,286046995.0,N
1516318655.0,286046997.7,N
1516318655.9,286046997.7,N
1516318675.8,286046996.9,N
1516318695.6,286046996.9,N
1516318715.4,286046997.2,N
1516318735.3,286046995.2,N
1516318755.1,286046997.6,N
1516318775.9,286046995.4,N
1516318795.7,286046996.2,N
1516318815.5,286046993.3,Y
1516318835.4,286046998.7,P
1516318855.2,286046998.6,N
1516318875.0,286046998.2,N
1516318876.0,286046998.2,N
1516318895.8,286046998.3,N
1516318915.6,286046998.8,N
1516318935.5,286046999.0,N
1516318955.3,286046999.1,N
1516318975.1,286047000.6,N
1516318995.9,286046999.7,N
1516319015.7,286046999.7,N
1516319035.6,286047002.2,N
1516319055.4,286047000.6,N
1516319075.2,286047001.0,N
1516319095.1,286047000.9,N
1516319096.0,286047000.9,N
1516319115.8,286047000.6,N
1516319135.6,286046998.2,N
1516319155.0,286047000.6,N
1516319156.0,286047000.6,N
1516319175.8,286047000.8,N
1516319195.6,286047000.9,N
1516319215.5,286047004.4,Y
1516319235.3,286047000.2,P
1516319255.2,286047000.8,P
1516319275.0,286047000.7,N
1516319275.9,286047000.7,N
1516319295.7,286047000.5,N
1516319315.6,286046998.1,Y
1516319335.4,286046998.2,P
1516319355.3,286046999.4,N
1516319375.1,286046998.6,N
1516319395.8,286047001.2,N
1516319415.7,286046998.6,N
1516319435.5,286046996.6,Y
1516319455.4,286046998.6,P
1516319475.2,286047002.2,P
1516319495.0,286047002.0,N
1516319495.9,286047002.0,N
1516319515.8,286047001.7,N
1516319535.6,286047002.6,N
1516319555.4,286047001.5,N
1516319575.3,286047002.5,N
1516319595.1,286047000.2,N
1516319615.9,286047002.2,N
1516319635.7,286047002.8,N
1516319655.5,286047002.0,N
1516319675.4,286047002.8,N
1516319695.2,286047002.8,N
1516319715.1,286047000.5,N
1516319716.0,286047000.5,N
1516319735.8,286047000.2,N
1516319755.6,286046999.7,N
1516319775.5,286047000.7,N
1516319795.3,286047000.3,N
1516319815.2,286047000.1,N
1516319835.9,286046999.9,N
1516319855.7,286047002.7,N
1516319875.6,286047001.1,N
1516319895.4,286046998.6,N
1516319915.2,286047001.8,N
1516319935.1,286047002.8,N
1516319936.0,286047002.8,N
1516319955.8,286047000.4,N
1516319975.7,286046998.6,N
1516319995.5,286046999.1,N
